| time (UTC) | temp C | wind direction | speed KPH | gust KPH | rain 1hr cm | rain 24hr cm | rain mn cm | humidity % | barometer mb |
| 20260507170042 | 11 | 298 | 8.0 | 19.3 | 0.00 | 0.30 | 0.03 | 45 | 1010.7 |
| 20260507164555 | 11 | 330 | 12.9 | 22.5 | 0.00 | 0.30 | 0.03 | 43 | 1010.8 |
| 20260507163039 | 11 | 319 | 12.9 | 19.3 | 0.00 | 0.30 | 0.03 | 46 | 1011.0 |
| 20260507161638 | 10 | 317 | 8.0 | 17.7 | 0.00 | 0.30 | 0.03 | 48 | 1011.3 |
| 20260507160038 | 11 | 294 | 12.9 | 22.5 | 0.00 | 0.30 | 0.03 | 46 | 1011.3 |
| 20260507154537 | 12 | 306 | 12.9 | 27.4 | 0.00 | 0.30 | 0.03 | 46 | 1011.3 |
| 20260507153032 | 11 | 304 | 3.2 | 20.9 | 0.00 | 0.30 | 0.03 | 49 | 1011.5 |
| 20260507151630 | 10 | 323 | 4.8 | 19.3 | 0.00 | 0.30 | 0.03 | 47 | 1011.6 |
| 20260507150029 | 10 | 257 | 0.0 | 8.0 | 0.00 | 0.30 | 0.03 | 54 | 1011.9 |
| 20260507144528 | 10 | 317 | 4.8 | 16.1 | 0.00 | 0.30 | 0.03 | 51 | 1011.9 |
| 20260507143043 | 10 | 297 | 4.8 | 25.7 | 0.00 | 0.30 | 0.03 | 55 | 1012.2 |
| 20260507141626 | 10 | 309 | 6.4 | 12.9 | 0.00 | 0.30 | 0.03 | 55 | 1012.2 |
| 20260507140025 | 10 | 275 | 0.0 | 9.7 | 0.00 | 0.36 | 0.03 | 59 | 1012.2 |
| 20260507134523 | 10 | 227 | 3.2 | 11.3 | 0.00 | 0.36 | 0.03 | 60 | 1012.3 |
| 20260507133021 | 10 | 295 | 3.2 | 8.0 | 0.00 | 0.36 | 0.03 | 64 | 1012.5 |
| 20260507131619 | 8 | 302 | 0.0 | 6.4 | 0.00 | 0.36 | 0.03 | 70 | 1012.6 |
| 20260507130031 | 8 | 301 | 1.6 | 8.0 | 0.00 | 0.56 | 0.03 | 68 | 1012.5 |
| 20260507124518 | 8 | 295 | 0.0 | 6.4 | 0.00 | 0.56 | 0.03 | 72 | 1012.4 |
| 20260507123015 | 8 | 225 | 0.0 | 0.0 | 0.00 | 0.56 | 0.03 | 78 | 1012.5 |
| 20260507121612 | 7 | 221 | 0.0 | 0.0 | 0.03 | 0.56 | 0.03 | 79 | 1012.6 |
| 20260507120008 | 6 | 220 | 0.0 | 0.0 | 0.03 | 0.71 | 0.03 | 82 | 1012.6 |
| 20260507114503 | 5 | 220 | 0.0 | 0.0 | 0.03 | 0.71 | 0.03 | 86 | 1012.4 |
| 20260507113101 | 5 | 220 | 0.0 | 0.0 | 0.03 | 0.71 | 0.03 | 87 | 1012.5 |
| 20260507111558 | 3 | 220 | 0.0 | 0.0 | 0.00 | 0.69 | 0.00 | 92 | 1012.7 |
| 20260507110056 | 2 | 220 | 0.0 | 0.0 | 0.00 | 0.76 | 0.00 | 92 | 1012.5 |
| 20260507104558 | 2 | 220 | 0.0 | 0.0 | 0.00 | 0.76 | 0.00 | 91 | 1012.4 |
| 20260507103052 | 2 | 220 | 0.0 | 0.0 | 0.00 | 0.76 | 0.00 | 91 | 1012.2 |
| 20260507101551 | 2 | 220 | 0.0 | 0.0 | 0.00 | 0.76 | 0.00 | 91 | 1012.0 |
| 20260507100056 | 2 | 220 | 0.0 | 0.0 | 0.00 | 0.89 | 0.00 | 91 | 1012.0 |
| 20260507094548 | 2 | 291 | 0.0 | 0.0 | 0.00 | 0.89 | 0.00 | 90 | 1011.8 |
| 20260507093044 | 2 | 291 | 0.0 | 0.0 | 0.00 | 0.89 | 0.00 | 90 | 1011.7 |
| 20260507091544 | 2 | 291 | 0.0 | 0.0 | 0.00 | 0.89 | 0.00 | 89 | 1011.9 |
| 20260507090049 | 3 | 291 | 0.0 | 0.0 | 0.00 | 0.99 | 0.89 | 89 | 1012.0 |
| 20260507084548 | 3 | 291 | 0.0 | 0.0 | 0.00 | 0.99 | 0.89 | 88 | 1012.0 |
| 20260507083037 | 3 | 291 | 0.0 | 0.0 | 0.00 | 0.99 | 0.89 | 88 | 1012.0 |
| 20260507081536 | 3 | 291 | 0.0 | 0.0 | 0.00 | 0.99 | 0.89 | 85 | 1012.0 |
| 20260507080035 | 3 | 291 | 0.0 | 0.0 | 0.00 | 1.12 | 0.89 | 84 | 1011.9 |
| 20260507074532 | 5 | 291 | 0.0 | 0.0 | 0.00 | 1.12 | 0.89 | 81 | 1011.9 |
| 20260507073033 | 5 | 291 | 0.0 | 0.0 | 0.00 | 1.12 | 0.89 | 80 | 1011.9 |
| 20260507071535 | 5 | 291 | 0.0 | 0.0 | 0.00 | 1.12 | 0.89 | 81 | 1011.8 |
| 20260507070033 | 5 | 291 | 0.0 | 4.8 | 0.00 | 1.12 | 0.89 | 81 | 1011.6 |
| 20260507064544 | 5 | 291 | 0.0 | 0.0 | 0.00 | 1.12 | 0.89 | 81 | 1011.7 |
| 20260507063030 | 5 | 291 | 0.0 | 0.0 | 0.00 | 1.12 | 0.89 | 80 | 1012.0 |
| 20260507061529 | 5 | 291 | 0.0 | 0.0 | 0.00 | 1.12 | 0.89 | 79 | 1012.0 |
| 20260507060027 | 5 | 291 | 0.0 | 6.4 | 0.00 | 1.12 | 0.89 | 80 | 1011.7 |
| 20260507054525 | 5 | 291 | 0.0 | 0.0 | 0.00 | 1.12 | 0.89 | 82 | 1012.0 |
| 20260507053025 | 5 | 292 | 0.0 | 6.4 | 0.00 | 1.12 | 0.89 | 83 | 1011.9 |
| 20260507051524 | 5 | 292 | 0.0 | 1.6 | 0.00 | 1.12 | 0.89 | 84 | 1011.5 |
| 20260507050035 | 6 | 292 | 0.0 | 4.8 | 0.00 | 1.12 | 0.89 | 84 | 1011.8 |
| 20260507044520 | 6 | 292 | 3.2 | 11.3 | 0.00 | 1.12 | 0.89 | 86 | 1012.1 |
| 20260507043017 | 6 | 295 | 3.2 | 11.3 | 0.00 | 1.12 | 0.89 | 88 | 1011.9 |
| 20260507041523 | 6 | 290 | 1.6 | 6.4 | 0.00 | 1.12 | 0.89 | 89 | 1011.8 |
| 20260507040011 | 7 | 290 | 0.0 | 0.0 | 0.00 | 1.12 | 0.89 | 88 | 1011.5 |
| 20260507034512 | 7 | 290 | 0.0 | 4.8 | 0.00 | 1.12 | 0.89 | 87 | 1011.2 |
| 20260507033010 | 7 | 289 | 0.0 | 8.0 | 0.00 | 1.12 | 0.89 | 87 | 1011.4 |
| 20260507031510 | 7 | 291 | 0.0 | 6.4 | 0.00 | 1.12 | 0.89 | 88 | 1011.2 |
| 20260507030017 | 7 | 312 | 0.0 | 1.6 | 0.00 | 1.12 | 0.89 | 89 | 1010.9 |
| 20260507024514 | 7 | 315 | 4.8 | 8.0 | 0.00 | 1.12 | 0.89 | 90 | 1011.1 |
| 20260507023007 | 7 | 328 | 0.0 | 0.0 | 0.00 | 1.12 | 0.89 | 91 | 1011.1 |
| 20260507021507 | 7 | 328 | 0.0 | 1.6 | 0.00 | 1.12 | 0.89 | 91 | 1011.0 |
| 20260507020005 | 7 | 328 | 0.0 | 0.0 | 0.00 | 1.12 | 0.89 | 92 | 1011.4 |
| 20260507014511 | 7 | 328 | 0.0 | 0.0 | 0.00 | 1.12 | 0.89 | 92 | 1011.4 |
| 20260507013011 | 7 | 328 | 0.0 | 0.0 | 0.00 | 1.12 | 0.89 | 92 | 1011.2 |
| 20260507011505 | 7 | 328 | 0.0 | 0.0 | 0.00 | 1.12 | 0.89 | 92 | 1011.5 |
| 20260507010007 | 7 | 328 | 0.0 | 0.0 | 0.00 | 1.12 | 0.89 | 92 | 1011.4 |
| 20260507004502 | 7 | 328 | 0.0 | 0.0 | 0.00 | 1.12 | 0.89 | 92 | 1010.8 |
| 20260507003001 | 7 | 328 | 0.0 | 0.0 | 0.00 | 1.12 | 0.89 | 91 | 1010.8 |
| 20260507001611 | 7 | 328 | 0.0 | 0.0 | 0.00 | 1.12 | 0.89 | 91 | 1010.3 |
| 20260507000059 | 8 | 328 | 0.0 | 0.0 | 0.00 | 1.12 | 0.89 | 91 | 1010.1 |
| 20260506234600 | 8 | 328 | 0.0 | 0.0 | 0.00 | 1.12 | 0.89 | 91 | 1010.2 |
| 20260506233059 | 8 | 328 | 0.0 | 0.0 | 0.00 | 1.12 | 0.89 | 91 | 1009.9 |
| 20260506231609 | 8 | 328 | 0.0 | 0.0 | 0.00 | 1.12 | 0.89 | 91 | 1009.8 |
| 20260506230111 | 8 | 328 | 0.0 | 0.0 | 0.00 | 1.12 | 0.89 | 90 | 1009.8 |
| 20260506224555 | 8 | 328 | 0.0 | 0.0 | 0.00 | 1.12 | 0.89 | 91 | 1009.8 |
| 20260506223053 | 8 | 328 | 0.0 | 0.0 | 0.00 | 1.12 | 0.89 | 91 | 1009.5 |
| 20260506221610 | 8 | 328 | 0.0 | 1.6 | 0.00 | 1.12 | 0.89 | 91 | 1009.5 |
| 20260506220108 | 8 | 328 | 0.0 | 0.0 | 0.00 | 1.12 | 0.89 | 91 | 1009.3 |
| 20260506214551 | 8 | 328 | 4.8 | 11.3 | 0.00 | 1.12 | 0.89 | 90 | 1009.2 |
| 20260506213105 | 8 | 345 | 1.6 | 6.4 | 0.00 | 1.12 | 0.89 | 90 | 1008.9 |
| 20260506211548 | 8 | 350 | 0.0 | 6.4 | 0.00 | 1.12 | 0.89 | 89 | 1008.7 |
| 20260506210054 | 8 | 350 | 0.0 | 8.0 | 0.00 | 1.19 | 0.89 | 89 | 1008.6 |
| 20260506204546 | 8 | 342 | 3.2 | 9.7 | 0.00 | 1.19 | 0.89 | 90 | 1008.4 |
| 20260506203045 | 8 | 344 | 0.0 | 4.8 | 0.00 | 1.19 | 0.89 | 90 | 1008.4 |
| 20260506201547 | 8 | 344 | 1.6 | 11.3 | 0.00 | 1.19 | 0.89 | 90 | 1008.1 |
| 20260506200043 | 8 | 333 | 3.2 | 14.5 | 0.00 | 1.19 | 0.89 | 90 | 1007.7 |
| 20260506194543 | 8 | 317 | 1.6 | 14.5 | 0.00 | 1.19 | 0.89 | 90 | 1007.8 |
| 20260506193041 | 8 | 5 | 0.0 | 12.9 | 0.00 | 1.19 | 0.89 | 90 | 1007.6 |
| 20260506191540 | 8 | 355 | 1.6 | 6.4 | 0.00 | 1.19 | 0.89 | 91 | 1007.4 |
| 20260506190040 | 8 | 22 | 0.0 | 9.7 | 0.03 | 1.37 | 0.89 | 92 | 1007.3 |
| 20260506184542 | 8 | 9 | 4.8 | 16.1 | 0.03 | 1.37 | 0.89 | 92 | 1007.3 |
| 20260506183039 | 7 | 325 | 9.7 | 19.3 | 0.05 | 1.37 | 0.89 | 92 | 1007.3 |
| 20260506181539 | 7 | 342 | 4.8 | 11.3 | 0.08 | 1.37 | 0.89 | 92 | 1007.1 |
| 20260506180039 | 7 | 339 | 1.6 | 11.3 | 0.05 | 1.35 | 0.86 | 92 | 1006.8 |
| 20260506174536 | 7 | 309 | 8.0 | 14.5 | 0.18 | 1.35 | 0.86 | 92 | 1006.6 |
| 20260506173031 | 8 | 55 | 0.0 | 0.0 | 0.23 | 1.32 | 0.84 | 92 | 1006.3 |
| 20260506171539 | 7 | 55 | 0.0 | 0.0 | 0.20 | 1.30 | 0.81 | 92 | 1006.1 |